STARLINK-32289, 60737

Orbit data source: Space-Track

STARLINK-32289, 60737 is a payload satellite owned by SpaceX/Seattle (US) in LEO that was launched on Wed, 28 Aug 2024 UTC via an FALCON 9 launch vehicle from the Air Force Eastern Test Range (AFETR). Payload-class satellites include a variety of spacecraft equipped with specific instruments for various scientific and technological missions. These include communications satellites like Starlink; space stations such as the ISS; scientific satellites like the Hubble; Earth observation satellites from companies like Planet Labs, Umbra, and HawkEye 360; GPS; miniature CubeSats for education and research; and military/defense satellites.

Loading next visibility...
Identifier
60737, 2024-152T
Orbit
LEO
Last TLE update
16 hours ago
Origin
Manufacturer
SpaceX/Seattle
Mission
Operational Commercial Communications
Bus & Motor
STARLINK V2M, Unknown motor
Mass
730 kg wet, ~700 kg dry
Launch date (UTC)
2024-08-28 (10 months ago)
Launch vehicle
FALCON 9
Launch site
Air Force Eastern Test Range (AFETR)
Object type
Payload
Rocket body
Debris
Shape & HBR
Box + 2 Pan, 29 m
Radar Cross Section
36.964 m², Large (>1 m²)

Expand to show TLE details & history

TLE from 16 hours ago
0 STARLINK-32289
1 60737U 24152T   25189.64950143  .00000302  00000-0  22327-4 0  9999
2 60737  53.1616 322.2243 0000928  92.4600 267.6507 15.30189391 49483
Epoch: 2025-07-08T15:35Z
TLE epoch observation values (Epoch: 2025-07-08T15:35:16.923Z)
Latitude
-0.00003°
Longitude
161.56232°
Altitude
476.173 km
Speed
7.629 km/s
True Right ascension
21h 28m 53s
True Declination
0° 00' 00"
Sunlit
Object was in full shadow at epoch
Visualization orbit readout
Latitude
53.29628°
Longitude
-113.59672°
Altitude
481.183 km
Speed
7.632 km/s
Apparent Right ascension
05h 42m 28s
Apparent Declination
10° 46' 05"
Sunlit
Object is in daylight
Visualization observer readout
Local Sidereal Time
19:48:30
Azimuth
37.025° NE
Elevation
-31.5°
Doppler factor
1
Orbital elements
Apogee altitude
476.139 km
Perigee altitude
474.867 km
Semi-major axis
6,853.64 km
Eccentricity
0.00009
Inclination
53.1616°
RAAN
322.2243°
Arg. of periapsis
92.46°
True anomaly
Unknown
Mean anomaly
267.6507°
Eccentric anomaly
Unknown
Mean motion
3.82526 °/min
Orbital period
94.11 mins
BSTAR
0.000022327
Loading maneuver chart data...
Loading SW <> Apogee altitude chart data...
Loading historical data...
Loading historical data...
Loading historical data...
Loading historical data...
Loading historical data...
Loading historical data...
Loading historical data...

STARLINK-32289 Visibility forecast

Observer location: undefined°, undefined°

Span
Click to sort rows by Start time (UTC) header in descending order
Start Az.
Max El. time (UTC)
Max El. Az.
Max El.
End time (UTC)
End Az.
5 mins2025-07-09 10:32:58.773Z178.567° S2025-07-09 10:35:58.773Z119.58° SE20.123°2025-07-09 10:37:58.773Z82.879° E
5 mins2025-07-09 12:10:58.773Z260.481° W2025-07-09 12:12:58.773Z310.02° NW34.031°2025-07-09 12:15:58.773Z34.255° NE
4 mins2025-07-09 17:08:58.773Z356.769° N2025-07-09 17:09:58.773Z21.742° NNE22.689°2025-07-09 17:12:58.773Z82.014° E
5 mins2025-07-09 18:45:58.773Z293.008° NW2025-07-09 18:47:58.773Z241.858° WSW36.586°2025-07-09 18:50:58.773Z153.406° SSE
|